Time,TemperatureF,DewpointF,PressureIn,WindDirection,WindDirectionDegrees,WindSpeedMPH,WindSpeedGustMPH,Humidity,HourlyPrecipIn,Conditions,Clouds,dailyrainin,SoftwareType,DateUTC
2013-02-22 00:02:00,22.8,18.1,29.80,North,8,1.4,2.5,82,0.00,,,0.00,WUHU216HW,2013-02-22 06:02:00,
2013-02-22 00:07:00,23.0,18.3,29.80,North,354,2.3,3.1,82,0.00,,,0.00,WUHU216HW,2013-02-22 06:07:00,
2013-02-22 00:12:00,23.1,18.4,29.80,North,0,2.4,4.4,82,0.00,,,0.00,WUHU216HW,2013-02-22 06:12:00,
2013-02-22 00:17:00,23.3,18.3,29.80,North,0,4.6,4.9,81,0.00,,,0.00,WUHU216HW,2013-02-22 06:17:00,
2013-02-22 00:22:00,23.1,18.1,29.80,NE,34,3.3,4.1,81,0.00,,,0.00,WUHU216HW,2013-02-22 06:22:00,
2013-02-22 00:27:00,23.0,18.0,29.80,North,8,2.5,3.9,81,0.00,,,0.00,WUHU216HW,2013-02-22 06:27:00,
2013-02-22 00:32:00,23.0,17.8,29.80,North,9,2.9,4.6,80,0.00,,,0.00,WUHU216HW,2013-02-22 06:32:00,
2013-02-22 00:37:00,23.0,18.0,29.80,North,0,3.0,5.4,81,0.00,,,0.00,WUHU216HW,2013-02-22 06:37:00,
2013-02-22 00:42:00,23.0,17.8,29.80,North,4,3.0,4.6,80,0.00,,,0.00,WUHU216HW,2013-02-22 06:42:00,
2013-02-22 00:47:00,23.0,17.8,29.81,North,357,2.8,4.6,80,0.00,,,0.00,WUHU216HW,2013-02-22 06:47:00,
2013-02-22 00:52:00,22.8,17.9,29.81,North,353,2.9,4.6,81,0.00,,,0.00,WUHU216HW,2013-02-22 06:52:00,
2013-02-22 00:57:00,22.8,17.6,29.80,North,356,2.7,3.9,80,0.00,,,0.00,WUHU216HW,2013-02-22 06:57:00,
2013-02-22 01:02:00,22.8,17.6,29.80,NNW,345,2.8,3.9,80,0.00,,,0.00,WUHU216HW,2013-02-22 07:02:00,
2013-02-22 01:07:00,23.0,18.0,29.80,NNW,344,2.9,3.9,81,0.00,,,0.00,WUHU216HW,2013-02-22 07:07:00,
2013-02-22 01:12:00,23.0,17.8,29.80,NNW,345,2.9,3.9,80,0.00,,,0.00,WUHU216HW,2013-02-22 07:12:00,
2013-02-22 01:17:00,22.8,17.6,29.80,North,356,3.3,3.6,80,0.00,,,0.00,WUHU216HW,2013-02-22 07:17:00,
2013-02-22 01:22:00,22.8,17.6,29.80,NNW,346,3.5,6.7,80,0.00,,,0.00,WUHU216HW,2013-02-22 07:22:00,
2013-02-22 01:27:00,22.6,17.7,29.80,NNW,347,3.9,4.4,81,0.00,,,0.00,WUHU216HW,2013-02-22 07:27:00,
2013-02-22 01:32:00,22.4,17.2,29.80,North,350,3.6,5.4,80,0.00,,,0.00,WUHU216HW,2013-02-22 07:32:00,
2013-02-22 01:37:00,22.6,17.7,29.80,NNW,345,3.2,4.1,81,0.00,,,0.00,WUHU216HW,2013-02-22 07:37:00,
2013-02-22 01:42:00,22.6,17.4,29.80,North,8,3.2,4.6,80,0.00,,,0.00,WUHU216HW,2013-02-22 07:42:00,
2013-02-22 01:47:00,22.4,17.2,29.80,NNW,344,3.9,4.9,80,0.00,,,0.00,WUHU216HW,2013-02-22 07:47:00,
2013-02-22 01:52:00,22.4,17.2,29.80,North,358,2.7,3.3,80,0.00,,,0.00,WUHU216HW,2013-02-22 07:52:00,
2013-02-22 01:57:00,22.4,17.2,29.80,NNW,347,2.5,3.6,80,0.00,,,0.00,WUHU216HW,2013-02-22 07:57:00,
2013-02-22 02:02:00,22.6,17.4,29.80,North,355,2.9,3.9,80,0.00,,,0.00,WUHU216HW,2013-02-22 08:02:00,
2013-02-22 02:07:00,22.6,17.4,29.80,North,349,3.9,6.2,80,0.00,,,0.00,WUHU216HW,2013-02-22 08:07:00,
2013-02-22 02:12:00,22.4,17.2,29.80,NNW,347,3.4,5.2,80,0.00,,,0.00,WUHU216HW,2013-02-22 08:12:00,
2013-02-22 02:17:00,22.2,17.3,29.80,North,349,4.2,5.2,81,0.00,,,0.00,WUHU216HW,2013-02-22 08:17:00,
2013-02-22 02:22:00,22.2,17.0,29.80,North,354,3.6,5.4,80,0.00,,,0.00,WUHU216HW,2013-02-22 08:22:00,
2013-02-22 02:27:00,22.2,17.0,29.81,NNW,342,3.1,4.1,80,0.00,,,0.00,WUHU216HW,2013-02-22 08:27:00,
2013-02-22 02:32:00,22.2,17.0,29.81,NNW,343,2.8,3.1,80,0.00,,,0.00,WUHU216HW,2013-02-22 08:32:00,
2013-02-22 02:37:00,22.2,17.0,29.81,NNW,328,4.5,7.9,80,0.00,,,0.00,WUHU216HW,2013-02-22 08:37:00,
2013-02-22 02:42:00,22.2,17.3,29.80,NNW,342,2.6,3.6,81,0.00,,,0.00,WUHU216HW,2013-02-22 08:42:00,
2013-02-22 02:47:00,22.4,17.5,29.81,North,351,4.1,6.2,81,0.00,,,0.00,WUHU216HW,2013-02-22 08:47:00,
2013-02-22 02:52:00,22.2,17.0,29.80,North,0,3.1,4.6,80,0.00,,,0.00,WUHU216HW,2013-02-22 08:52:00,
2013-02-22 02:57:00,22.1,16.9,29.81,North,357,3.1,3.9,80,0.00,,,0.00,WUHU216HW,2013-02-22 08:57:00,
2013-02-22 03:02:00,22.1,16.9,29.81,NNW,328,3.6,4.9,80,0.00,,,0.00,WUHU216HW,2013-02-22 09:02:00,
2013-02-22 03:07:00,22.1,16.9,29.80,NNW,339,3.4,4.1,80,0.00,,,0.00,WUHU216HW,2013-02-22 09:07:00,
2013-02-22 03:12:00,22.1,16.9,29.80,NNW,344,2.5,4.6,80,0.00,,,0.00,WUHU216HW,2013-02-22 09:12:00,
2013-02-22 03:17:00,22.1,16.9,29.80,NNW,338,3.0,4.6,80,0.00,,,0.00,WUHU216HW,2013-02-22 09:17:00,
2013-02-22 03:22:00,22.1,16.9,29.80,NNW,346,4.3,6.2,80,0.00,,,0.00,WUHU216HW,2013-02-22 09:22:00,
2013-02-22 03:27:00,22.1,16.9,29.80,NNW,329,3.7,4.4,80,0.00,,,0.00,WUHU216HW,2013-02-22 09:27:00,
2013-02-22 03:32:00,21.9,16.7,29.80,NNW,340,3.4,4.6,80,0.00,,,0.00,WUHU216HW,2013-02-22 09:32:00,
2013-02-22 03:37:00,21.7,16.5,29.80,NNW,328,3.1,4.6,80,0.00,,,0.00,WUHU216HW,2013-02-22 09:37:00,
2013-02-22 03:42:00,21.7,16.8,29.81,NW,322,3.9,5.4,81,0.00,,,0.00,WUHU216HW,2013-02-22 09:42:00,
2013-02-22 03:47:00,21.5,16.6,29.80,NNW,328,4.3,5.6,81,0.00,,,0.00,WUHU216HW,2013-02-22 09:47:00,
2013-02-22 03:52:00,21.3,16.4,29.81,NNW,337,3.5,3.9,81,0.00,,,0.00,WUHU216HW,2013-02-22 09:52:00,
2013-02-22 03:57:00,21.3,16.4,29.81,NNW,345,3.5,4.4,81,0.00,,,0.00,WUHU216HW,2013-02-22 09:57:00,
2013-02-22 04:02:00,21.3,16.4,29.81,NNW,339,3.7,6.4,81,0.00,,,0.00,WUHU216HW,2013-02-22 10:02:00,
2013-02-22 04:07:00,21.2,16.3,29.81,NW,323,6.2,7.2,81,0.00,,,0.00,WUHU216HW,2013-02-22 10:07:00,
2013-02-22 04:12:00,20.8,15.6,29.81,North,355,5.0,5.6,80,0.00,,,0.00,WUHU216HW,2013-02-22 10:12:00,
2013-02-22 04:17:00,20.8,15.9,29.81,NNW,328,4.0,5.9,81,0.00,,,0.00,WUHU216HW,2013-02-22 10:17:00,
2013-02-22 04:22:00,20.8,15.9,29.81,NNW,338,5.4,6.7,81,0.00,,,0.00,WUHU216HW,2013-02-22 10:22:00,
2013-02-22 04:27:00,20.6,15.7,29.81,NNW,344,5.4,7.2,81,0.00,,,0.00,WUHU216HW,2013-02-22 10:27:00,
2013-02-22 04:32:00,20.6,15.7,29.81,North,349,4.9,6.4,81,0.00,,,0.00,WUHU216HW,2013-02-22 10:32:00,
2013-02-22 04:37:00,20.3,15.4,29.81,NNW,346,4.0,7.9,81,0.00,,,0.00,WUHU216HW,2013-02-22 10:37:00,
2013-02-22 04:42:00,20.3,15.4,29.81,North,355,5.1,6.7,81,0.00,,,0.00,WUHU216HW,2013-02-22 10:42:00,
2013-02-22 04:47:00,20.3,15.4,29.81,NNW,327,5.0,6.9,81,0.00,,,0.00,WUHU216HW,2013-02-22 10:47:00,
2013-02-22 04:52:00,20.3,15.7,29.81,NNW,340,5.3,6.4,82,0.00,,,0.00,WUHU216HW,2013-02-22 10:52:00,
2013-02-22 04:57:00,20.3,15.7,29.82,NNW,341,5.2,6.2,82,0.00,,,0.00,WUHU216HW,2013-02-22 10:57:00,
2013-02-22 05:02:00,20.3,15.7,29.82,North,355,6.1,7.7,82,0.00,,,0.00,WUHU216HW,2013-02-22 11:02:00,
2013-02-22 05:07:00,20.3,15.7,29.82,NNW,339,5.0,6.9,82,0.00,,,0.00,WUHU216HW,2013-02-22 11:07:00,
2013-02-22 05:12:00,20.3,15.9,29.82,NNW,337,4.0,6.2,83,0.00,,,0.00,WUHU216HW,2013-02-22 11:12:00,
2013-02-22 05:17:00,20.4,16.0,29.82,NNW,348,3.9,6.2,83,0.00,,,0.00,WUHU216HW,2013-02-22 11:17:00,
2013-02-22 05:22:00,20.6,16.0,29.82,NNW,335,5.6,6.7,82,0.00,,,0.00,WUHU216HW,2013-02-22 11:22:00,
2013-02-22 05:27:00,20.6,16.0,29.82,NNW,330,5.4,6.7,82,0.00,,,0.00,WUHU216HW,2013-02-22 11:27:00,
2013-02-22 05:32:00,20.6,16.0,29.82,NNW,339,4.9,6.2,82,0.00,,,0.00,WUHU216HW,2013-02-22 11:32:00,
2013-02-22 05:37:00,20.4,15.8,29.82,NNW,334,4.9,5.9,82,0.00,,,0.00,WUHU216HW,2013-02-22 11:37:00,
2013-02-22 05:42:00,20.3,15.7,29.82,NNW,348,3.8,5.2,82,0.00,,,0.00,WUHU216HW,2013-02-22 11:42:00,
2013-02-22 05:47:00,20.3,15.7,29.82,NNW,336,3.8,5.4,82,0.00,,,0.00,WUHU216HW,2013-02-22 11:47:00,
2013-02-22 05:52:00,20.3,15.7,29.82,NNW,331,4.1,5.6,82,0.00,,,0.00,WUHU216HW,2013-02-22 11:52:00,
2013-02-22 05:57:00,20.3,15.7,29.83,NW,321,5.5,9.8,82,0.00,,,0.00,WUHU216HW,2013-02-22 11:57:00,
2013-02-22 06:02:00,20.3,15.7,29.83,NNW,338,6.0,8.5,82,0.00,,,0.00,WUHU216HW,2013-02-22 12:02:00,
2013-02-22 06:07:00,20.1,15.5,29.83,NNW,333,4.0,4.9,82,0.00,,,0.00,WUHU216HW,2013-02-22 12:07:00,
2013-02-22 06:12:00,20.1,15.5,29.83,NNW,337,5.8,9.8,82,0.00,,,0.00,WUHU216HW,2013-02-22 12:12:00,
2013-02-22 06:17:00,20.1,15.5,29.83,NNW,332,6.7,8.7,82,0.00,,,0.00,WUHU216HW,2013-02-22 12:17:00,
2013-02-22 06:22:00,19.9,15.0,29.83,NW,321,5.1,7.9,81,0.00,,,0.00,WUHU216HW,2013-02-22 12:22:00,
2013-02-22 06:27:00,19.9,15.3,29.83,NNW,338,4.5,5.9,82,0.00,,,0.00,WUHU216HW,2013-02-22 12:27:00,
2013-02-22 06:32:00,19.9,15.3,29.83,NNW,344,4.6,5.4,82,0.00,,,0.00,WUHU216HW,2013-02-22 12:32:00,
2013-02-22 06:37:00,19.9,15.0,29.83,NNW,334,4.5,6.4,81,0.00,,,0.00,WUHU216HW,2013-02-22 12:37:00,
2013-02-22 06:42:00,19.9,15.0,29.84,NNW,343,2.8,3.6,81,0.00,,,0.00,WUHU216HW,2013-02-22 12:42:00,
2013-02-22 06:47:00,19.7,14.8,29.84,NNW,345,5.2,9.8,81,0.00,,,0.00,WUHU216HW,2013-02-22 12:47:00,
2013-02-22 06:52:00,19.5,14.9,29.84,NNW,340,5.2,7.2,82,0.00,,,0.00,WUHU216HW,2013-02-22 12:52:00,
2013-02-22 06:57:00,19.5,14.9,29.84,NNW,330,5.1,6.2,82,0.00,,,0.00,WUHU216HW,2013-02-22 12:57:00,
2013-02-22 07:02:00,19.4,14.5,29.84,NNW,336,7.8,12.3,81,0.00,,,0.00,WUHU216HW,2013-02-22 13:02:00,
2013-02-22 07:07:00,19.2,14.6,29.85,NNW,331,4.1,4.9,82,0.00,,,0.00,WUHU216HW,2013-02-22 13:07:00,
2013-02-22 07:12:00,19.4,14.5,29.85,NNW,339,5.3,7.2,81,0.00,,,0.00,WUHU216HW,2013-02-22 13:12:00,
2013-02-22 07:17:00,19.2,14.3,29.85,NW,326,5.8,9.0,81,0.00,,,0.00,WUHU216HW,2013-02-22 13:17:00,
2013-02-22 07:22:00,19.2,14.3,29.85,NNW,342,5.6,6.2,81,0.00,,,0.00,WUHU216HW,2013-02-22 13:22:00,
2013-02-22 07:27:00,19.0,14.1,29.85,NNW,338,5.4,7.9,81,0.00,,,0.00,WUHU216HW,2013-02-22 13:27:00,
2013-02-22 07:32:00,18.8,13.9,29.85,NNW,345,6.1,7.9,81,0.00,,,0.00,WUHU216HW,2013-02-22 13:32:00,
2013-02-22 07:37:00,18.6,13.7,29.86,NNW,345,5.2,8.3,81,0.00,,,0.00,WUHU216HW,2013-02-22 13:37:00,
2013-02-22 07:42:00,18.5,13.6,29.86,North,350,4.1,4.6,81,0.00,,,0.00,WUHU216HW,2013-02-22 13:42:00,
2013-02-22 07:47:00,18.8,13.9,29.86,NNW,338,5.0,5.4,81,0.00,,,0.00,WUHU216HW,2013-02-22 13:47:00,
2013-02-22 07:53:00,18.8,13.6,29.87,NW,323,4.3,5.4,80,0.00,,,0.00,WUHU216HW,2013-02-22 13:53:00,
2013-02-22 07:58:00,18.8,13.6,29.87,NNW,334,6.8,9.8,80,0.00,,,0.00,WUHU216HW,2013-02-22 13:58:00,
2013-02-22 08:03:00,18.5,13.1,29.87,North,350,4.0,5.2,79,0.00,,,0.00,WUHU216HW,2013-02-22 14:03:00,
2013-02-22 08:08:00,18.5,13.1,29.88,NNW,335,5.7,7.9,79,0.00,,,0.00,WUHU216HW,2013-02-22 14:08:00,
2013-02-22 08:13:00,18.1,13.0,29.88,NNW,341,4.9,6.7,80,0.00,,,0.00,WUHU216HW,2013-02-22 14:13:00,
2013-02-22 08:18:00,18.3,13.2,29.88,NNW,342,5.4,6.7,80,0.00,,,0.00,WUHU216HW,2013-02-22 14:18:00,
2013-02-22 08:23:00,18.3,13.2,29.88,NNW,338,7.3,7.9,80,0.00,,,0.00,WUHU216HW,2013-02-22 14:23:00,
2013-02-22 08:28:00,18.3,12.9,29.89,NNW,342,5.9,9.8,79,0.00,,,0.00,WUHU216HW,2013-02-22 14:28:00,
2013-02-22 08:33:00,18.3,12.9,29.89,NNW,338,4.2,5.9,79,0.00,,,0.00,WUHU216HW,2013-02-22 14:33:00,
2013-02-22 08:38:00,18.5,13.1,29.89,NW,318,6.6,9.8,79,0.00,,,0.00,WUHU216HW,2013-02-22 14:38:00,
2013-02-22 08:43:00,18.6,13.2,29.89,NNW,331,5.8,9.8,79,0.00,,,0.00,WUHU216HW,2013-02-22 14:43:00,
2013-02-22 08:48:00,18.8,13.1,29.89,NW,317,6.9,9.5,78,0.00,,,0.00,WUHU216HW,2013-02-22 14:48:00,
2013-02-22 08:53:00,19.0,13.3,29.90,NNW,329,4.0,8.7,78,0.00,,,0.00,WUHU216HW,2013-02-22 14:53:00,
2013-02-22 08:58:00,19.0,13.3,29.90,North,351,6.3,9.5,78,0.00,,,0.00,WUHU216HW,2013-02-22 14:58:00,
2013-02-22 09:03:00,19.2,13.2,29.90,NNW,348,5.7,10.8,77,0.00,,,0.00,WUHU216HW,2013-02-22 15:03:00,
2013-02-22 09:08:00,19.4,13.4,29.90,NNW,333,5.5,9.0,77,0.00,,,0.00,WUHU216HW,2013-02-22 15:08:00,
2013-02-22 09:13:00,19.7,13.4,29.90,NW,316,6.2,8.7,76,0.00,,,0.00,WUHU216HW,2013-02-22 15:13:00,
2013-02-22 09:18:00,19.7,13.4,29.90,NNW,332,4.7,6.2,76,0.00,,,0.00,WUHU216HW,2013-02-22 15:18:00,
2013-02-22 09:23:00,19.9,13.9,29.90,NW,321,3.0,3.3,77,0.00,,,0.00,WUHU216HW,2013-02-22 15:23:00,
2013-02-22 09:28:00,20.4,14.1,29.90,NNW,338,3.7,5.4,76,0.00,,,0.00,WUHU216HW,2013-02-22 15:28:00,
2013-02-22 09:33:00,20.8,14.7,29.91,NW,308,2.5,3.3,77,0.00,,,0.00,WUHU216HW,2013-02-22 15:33:00,
2013-02-22 09:38:00,21.3,15.2,29.91,NW,308,2.1,3.3,77,0.00,,,0.00,WUHU216HW,2013-02-22 15:38:00,
2013-02-22 09:43:00,21.7,15.3,29.91,NNW,341,3.8,5.4,76,0.00,,,0.00,WUHU216HW,2013-02-22 15:43:00,
2013-02-22 09:48:00,22.1,15.7,29.92,NW,304,2.4,3.3,76,0.00,,,0.00,WUHU216HW,2013-02-22 15:48:00,
2013-02-22 09:53:00,22.6,16.2,29.92,NW,322,3.8,5.2,76,0.00,,,0.00,WUHU216HW,2013-02-22 15:53:00,
2013-02-22 09:58:00,22.8,16.1,29.91,NNW,344,4.2,5.6,75,0.00,,,0.00,WUHU216HW,2013-02-22 15:58:00,
2013-02-22 10:03:00,23.1,16.4,29.91,NW,306,3.2,5.4,75,0.00,,,0.00,WUHU216HW,2013-02-22 16:03:00,
2013-02-22 10:08:00,23.1,16.1,29.92,NW,322,4.0,5.2,74,0.00,,,0.00,WUHU216HW,2013-02-22 16:08:00,
2013-02-22 10:13:00,22.8,15.5,29.92,North,352,7.0,8.3,73,0.00,,,0.00,WUHU216HW,2013-02-22 16:13:00,
2013-02-22 10:18:00,22.6,15.3,29.91,NW,325,4.7,5.9,73,0.00,,,0.00,WUHU216HW,2013-02-22 16:18:00,
2013-02-22 10:23:00,22.8,15.5,29.91,NNW,339,4.6,5.9,73,0.00,,,0.00,WUHU216HW,2013-02-22 16:23:00,
2013-02-22 10:28:00,22.4,14.8,29.92,NNW,330,6.4,7.9,72,0.00,,,0.00,WUHU216HW,2013-02-22 16:28:00,
2013-02-22 10:33:00,22.4,15.1,29.92,NNW,330,4.7,5.9,73,0.00,,,0.00,WUHU216HW,2013-02-22 16:33:00,
2013-02-22 10:38:00,22.4,14.8,29.92,NW,316,5.5,5.9,72,0.00,,,0.00,WUHU216HW,2013-02-22 16:38:00,
2013-02-22 10:43:00,22.4,15.1,29.92,WNW,301,4.7,5.4,73,0.00,,,0.00,WUHU216HW,2013-02-22 16:43:00,
2013-02-22 10:48:00,22.4,14.8,29.92,NW,313,6.1,8.5,72,0.00,,,0.00,WUHU216HW,2013-02-22 16:48:00,
2013-02-22 10:53:00,21.9,14.3,29.92,NW,319,6.0,6.9,72,0.00,,,0.00,WUHU216HW,2013-02-22 16:53:00,
2013-02-22 10:58:00,21.7,14.4,29.93,NNW,334,5.7,8.3,73,0.00,,,0.00,WUHU216HW,2013-02-22 16:58:00,
2013-02-22 11:03:00,21.9,14.9,29.93,NNW,338,5.0,7.2,74,0.00,,,0.00,WUHU216HW,2013-02-22 17:03:00,
2013-02-22 11:08:00,21.9,14.6,29.93,NNW,339,4.1,5.6,73,0.00,,,0.00,WUHU216HW,2013-02-22 17:08:00,
2013-02-22 11:13:00,22.1,14.8,29.94,NW,307,4.0,5.9,73,0.00,,,0.00,WUHU216HW,2013-02-22 17:13:00,
2013-02-22 11:18:00,22.1,14.8,29.94,NW,316,4.3,5.4,73,0.00,,,0.00,WUHU216HW,2013-02-22 17:18:00,
2013-02-22 11:23:00,22.6,15.6,29.94,NW,316,3.6,5.4,74,0.00,,,0.00,WUHU216HW,2013-02-22 17:23:00,
2013-02-22 11:28:00,23.3,16.0,29.94,WNW,286,3.4,6.2,73,0.00,,,0.00,WUHU216HW,2013-02-22 17:28:00,
2013-02-22 11:33:00,23.9,16.2,29.94,NNW,345,5.3,6.2,72,0.00,,,0.00,WUHU216HW,2013-02-22 17:33:00,
2013-02-22 11:38:00,23.5,15.9,29.94,North,358,4.1,5.6,72,0.00,,,0.00,WUHU216HW,2013-02-22 17:38:00,
2013-02-22 11:43:00,23.7,15.7,29.94,NW,317,5.7,7.9,71,0.00,,,0.00,WUHU216HW,2013-02-22 17:43:00,
2013-02-22 11:48:00,23.7,15.4,29.94,NNW,330,5.5,7.7,70,0.00,,,0.00,WUHU216HW,2013-02-22 17:48:00,
2013-02-22 11:53:00,23.9,15.9,29.95,NNW,339,5.1,6.9,71,0.00,,,0.00,WUHU216HW,2013-02-22 17:53:00,
2013-02-22 11:58:00,24.2,16.2,29.95,NNW,334,3.9,4.9,71,0.00,,,0.00,WUHU216HW,2013-02-22 17:58:00,
2013-02-22 12:03:00,24.8,16.8,29.95,NW,324,4.5,6.4,71,0.00,,,0.00,WUHU216HW,2013-02-22 18:03:00,
2013-02-22 12:08:00,24.9,16.6,29.95,North,351,4.3,6.9,70,0.00,,,0.00,WUHU216HW,2013-02-22 18:08:00,
2013-02-22 12:13:00,25.1,17.1,29.95,NNW,333,5.1,6.2,71,0.00,,,0.00,WUHU216HW,2013-02-22 18:13:00,
2013-02-22 12:18:00,25.3,17.3,29.95,WNW,292,3.8,5.2,71,0.00,,,0.00,WUHU216HW,2013-02-22 18:18:00,
2013-02-22 12:23:00,25.7,17.7,29.96,WSW,255,2.5,3.3,71,0.00,,,0.00,WUHU216HW,2013-02-22 18:23:00,
2013-02-22 12:28:00,26.2,18.5,29.96,West,269,3.2,4.1,72,0.00,,,0.00,WUHU216HW,2013-02-22 18:28:00,
2013-02-22 12:33:00,26.4,18.4,29.96,West,275,3.2,3.9,71,0.00,,,0.00,WUHU216HW,2013-02-22 18:33:00,
2013-02-22 12:38:00,26.6,18.5,29.96,West,269,2.6,3.3,71,0.00,,,0.00,WUHU216HW,2013-02-22 18:38:00,
2013-02-22 12:43:00,26.9,18.5,29.96,West,259,4.1,5.4,70,0.00,,,0.00,WUHU216HW,2013-02-22 18:43:00,
2013-02-22 12:48:00,26.7,18.3,29.96,WNW,295,4.0,5.4,70,0.00,,,0.00,WUHU216HW,2013-02-22 18:48:00,
2013-02-22 12:53:00,27.3,18.9,29.95,NNW,327,3.3,4.4,70,0.00,,,0.00,WUHU216HW,2013-02-22 18:53:00,
2013-02-22 12:58:00,27.1,18.4,29.95,WNW,299,4.1,5.4,69,0.00,,,0.00,WUHU216HW,2013-02-22 18:58:00,
2013-02-22 13:03:00,27.3,18.6,29.95,West,268,3.2,3.9,69,0.00,,,0.00,WUHU216HW,2013-02-22 19:03:00,
2013-02-22 13:08:00,27.5,18.4,29.95,NW,309,3.3,3.9,68,0.00,,,0.00,WUHU216HW,2013-02-22 19:08:00,
2013-02-22 13:13:00,27.8,19.0,29.95,WNW,287,4.2,5.2,69,0.00,,,0.00,WUHU216HW,2013-02-22 19:13:00,
2013-02-22 13:18:00,28.4,19.3,29.95,WNW,296,4.5,5.9,68,0.00,,,0.00,WUHU216HW,2013-02-22 19:18:00,
2013-02-22 13:23:00,28.4,18.9,29.95,WNW,294,3.7,4.6,67,0.00,,,0.00,WUHU216HW,2013-02-22 19:23:00,
2013-02-22 13:28:00,28.5,19.0,29.95,West,274,4.8,6.2,67,0.00,,,0.00,WUHU216HW,2013-02-22 19:28:00,
2013-02-22 13:33:00,28.5,19.0,29.95,NW,306,3.9,4.6,67,0.00,,,0.00,WUHU216HW,2013-02-22 19:33:00,
2013-02-22 13:38:00,28.9,20.1,29.95,NW,318,3.2,4.4,69,0.00,,,0.00,WUHU216HW,2013-02-22 19:38:00,
2013-02-22 13:43:00,29.4,21.9,29.95,West,266,3.8,5.4,73,0.00,,,0.00,WUHU216HW,2013-02-22 19:43:00,
2013-02-22 13:48:00,29.8,22.3,29.95,WNW,295,5.3,5.9,73,0.00,,,0.00,WUHU216HW,2013-02-22 19:48:00,
2013-02-22 13:53:00,30.0,22.2,29.95,NW,309,4.4,4.9,72,0.00,,,0.00,WUHU216HW,2013-02-22 19:53:00,
2013-02-22 13:58:00,30.0,22.2,29.95,WNW,291,3.2,3.6,72,0.00,,,0.00,WUHU216HW,2013-02-22 19:58:00,
2013-02-22 14:03:00,30.4,21.1,29.95,WNW,282,4.9,6.4,68,0.00,,,0.00,WUHU216HW,2013-02-22 20:03:00,
2013-02-22 14:08:00,30.4,21.1,29.95,NW,312,4.3,5.4,68,0.00,,,0.00,WUHU216HW,2013-02-22 20:08:00,
2013-02-22 14:13:00,30.6,20.6,29.95,NW,312,4.2,4.9,66,0.00,,,0.00,WUHU216HW,2013-02-22 20:13:00,
2013-02-22 14:18:00,30.3,20.0,29.95,NW,317,4.2,6.7,65,0.00,,,0.00,WUHU216HW,2013-02-22 20:18:00,
2013-02-22 14:23:00,29.3,18.0,29.95,NNW,330,5.3,6.2,62,0.00,,,0.00,WUHU216HW,2013-02-22 20:23:00,
2013-02-22 14:28:00,29.1,18.5,29.95,WNW,290,4.3,5.9,64,0.00,,,0.00,WUHU216HW,2013-02-22 20:28:00,
2013-02-22 14:33:00,28.5,17.2,29.95,NW,309,5.2,9.3,62,0.00,,,0.00,WUHU216HW,2013-02-22 20:33:00,
2013-02-22 14:38:00,27.8,16.9,29.95,NW,325,4.8,6.4,63,0.00,,,0.00,WUHU216HW,2013-02-22 20:38:00,
2013-02-22 14:43:00,27.8,17.7,29.95,NW,320,4.8,7.9,65,0.00,,,0.00,WUHU216HW,2013-02-22 20:43:00,
2013-02-22 14:48:00,27.8,17.3,29.95,NNW,338,4.0,4.6,64,0.00,,,0.00,WUHU216HW,2013-02-22 20:48:00,
2013-02-22 14:53:00,27.5,17.0,29.95,NW,314,3.7,5.4,64,0.00,,,0.00,WUHU216HW,2013-02-22 20:53:00,
2013-02-22 14:58:00,27.5,17.4,29.95,WNW,295,4.6,5.6,65,0.00,,,0.00,WUHU216HW,2013-02-22 20:58:00,
2013-02-22 15:03:00,27.5,16.6,29.95,NW,313,6.1,7.5,63,0.00,,,0.00,WUHU216HW,2013-02-22 21:03:00,
2013-02-22 15:08:00,27.3,16.8,29.95,NW,315,4.6,6.2,64,0.00,,,0.00,WUHU216HW,2013-02-22 21:08:00,
2013-02-22 15:13:00,27.1,16.6,29.95,NW,319,4.1,6.2,64,0.00,,,0.00,WUHU216HW,2013-02-22 21:13:00,
2013-02-22 15:18:00,27.1,16.6,29.95,NNW,345,5.5,7.2,64,0.00,,,0.00,WUHU216HW,2013-02-22 21:18:00,
2013-02-22 15:23:00,26.4,16.0,29.95,WNW,293,4.8,6.2,64,0.00,,,0.00,WUHU216HW,2013-02-22 21:23:00,
2013-02-22 15:28:00,26.2,16.1,29.95,NW,315,3.9,4.6,65,0.00,,,0.00,WUHU216HW,2013-02-22 21:28:00,
2013-02-22 15:33:00,26.0,15.9,29.95,NNW,343,5.6,8.3,65,0.00,,,0.00,WUHU216HW,2013-02-22 21:33:00,
2013-02-22 15:38:00,25.5,15.1,29.95,NNW,338,7.1,9.0,64,0.00,,,0.00,WUHU216HW,2013-02-22 21:38:00,
2013-02-22 15:43:00,24.9,14.9,29.95,North,350,7.5,10.8,65,0.00,,,0.00,WUHU216HW,2013-02-22 21:43:00,
2013-02-22 15:48:00,24.9,15.2,29.95,NW,321,3.9,5.2,66,0.00,,,0.00,WUHU216HW,2013-02-22 21:48:00,
2013-02-22 15:53:00,24.9,15.2,29.95,NNW,330,5.0,7.2,66,0.00,,,0.00,WUHU216HW,2013-02-22 21:53:00,
2013-02-22 15:58:00,24.9,15.2,29.95,NW,321,3.7,5.4,66,0.00,,,0.00,WUHU216HW,2013-02-22 21:58:00,
2013-02-22 16:03:00,25.3,16.0,29.95,NNW,334,3.8,5.2,67,0.00,,,0.00,WUHU216HW,2013-02-22 22:03:00,
2013-02-22 16:08:00,25.7,16.0,29.95,NW,310,4.0,4.9,66,0.00,,,0.00,WUHU216HW,2013-02-22 22:08:00,
2013-02-22 16:13:00,25.8,16.1,29.96,NW,315,3.8,5.4,66,0.00,,,0.00,WUHU216HW,2013-02-22 22:13:00,
2013-02-22 16:18:00,25.8,16.1,29.96,WNW,286,3.0,3.9,66,0.00,,,0.00,WUHU216HW,2013-02-22 22:18:00,
2013-02-22 16:23:00,25.8,16.1,29.96,WNW,298,1.9,2.3,66,0.00,,,0.00,WUHU216HW,2013-02-22 22:23:00,
2013-02-22 16:28:00,26.0,16.3,29.96,NW,305,3.1,4.6,66,0.00,,,0.00,WUHU216HW,2013-02-22 22:28:00,
2013-02-22 16:34:00,26.4,17.0,29.96,West,267,3.0,4.1,67,0.00,,,0.00,WUHU216HW,2013-02-22 22:34:00,
2013-02-22 16:39:00,26.6,17.2,29.96,WNW,293,3.4,4.6,67,0.00,,,0.00,WUHU216HW,2013-02-22 22:39:00,
2013-02-22 16:44:00,26.6,16.9,29.96,NW,308,4.6,6.9,66,0.00,,,0.00,WUHU216HW,2013-02-22 22:44:00,
2013-02-22 16:49:00,26.4,16.7,29.96,NW,321,2.8,4.6,66,0.00,,,0.00,WUHU216HW,2013-02-22 22:49:00,
2013-02-22 16:54:00,26.4,16.7,29.96,WNW,297,2.9,3.9,66,0.00,,,0.00,WUHU216HW,2013-02-22 22:54:00,
2013-02-22 16:59:00,26.2,16.5,29.96,NNW,327,4.8,6.4,66,0.00,,,0.00,WUHU216HW,2013-02-22 22:59:00,
2013-02-22 17:04:00,25.7,15.6,29.96,NNW,332,4.5,5.4,65,0.00,,,0.00,WUHU216HW,2013-02-22 23:04:00,
2013-02-22 17:09:00,25.1,15.4,29.96,NNW,341,4.8,7.2,66,0.00,,,0.00,WUHU216HW,2013-02-22 23:09:00,
2013-02-22 17:14:00,25.1,15.8,29.96,NNW,335,3.6,5.4,67,0.00,,,0.00,WUHU216HW,2013-02-22 23:14:00,
2013-02-22 17:19:00,25.1,15.8,29.96,NW,322,4.1,5.2,67,0.00,,,0.00,WUHU216HW,2013-02-22 23:19:00,
2013-02-22 17:24:00,25.1,15.8,29.96,North,2,3.9,6.2,67,0.00,,,0.00,WUHU216HW,2013-02-22 23:24:00,
2013-02-22 17:29:00,24.9,15.6,29.97,NW,325,3.3,4.6,67,0.00,,,0.00,WUHU216HW,2013-02-22 23:29:00,
2013-02-22 17:34:00,24.9,15.6,29.97,NW,323,3.0,4.6,67,0.00,,,0.00,WUHU216HW,2013-02-22 23:34:00,
2013-02-22 17:39:00,24.8,15.8,29.97,NW,326,3.2,4.4,68,0.00,,,0.00,WUHU216HW,2013-02-22 23:39:00,
2013-02-22 17:44:00,24.9,15.9,29.97,NW,307,2.3,3.1,68,0.00,,,0.00,WUHU216HW,2013-02-22 23:44:00,
2013-02-22 17:49:00,24.9,15.9,29.97,WNW,294,2.6,4.4,68,0.00,,,0.00,WUHU216HW,2013-02-22 23:49:00,
2013-02-22 17:54:00,24.9,15.9,29.97,NNW,333,2.3,3.3,68,0.00,,,0.00,WUHU216HW,2013-02-22 23:54:00,
2013-02-22 17:59:00,24.6,15.6,29.97,NW,313,3.6,4.9,68,0.00,,,0.00,WUHU216HW,2013-02-22 23:59:00,
2013-02-22 18:04:00,24.4,15.4,29.97,WNW,297,3.1,5.4,68,0.00,,,0.00,WUHU216HW,2013-02-23 00:04:00,
2013-02-22 18:09:00,24.4,15.4,29.97,NW,319,2.4,3.3,68,0.00,,,0.00,WUHU216HW,2013-02-23 00:09:00,
2013-02-22 18:14:00,24.2,15.6,29.98,North,354,4.3,6.2,69,0.00,,,0.00,WUHU216HW,2013-02-23 00:14:00,
2013-02-22 18:19:00,24.2,15.6,29.98,WNW,297,3.1,4.1,69,0.00,,,0.00,WUHU216HW,2013-02-23 00:19:00,
2013-02-22 18:24:00,24.2,15.2,29.98,NNW,335,4.0,4.9,68,0.00,,,0.00,WUHU216HW,2013-02-23 00:24:00,
2013-02-22 18:29:00,24.0,15.4,29.98,NNW,327,3.2,4.1,69,0.00,,,0.00,WUHU216HW,2013-02-23 00:29:00,
2013-02-22 18:34:00,24.0,15.0,29.98,NW,309,4.1,4.9,68,0.00,,,0.00,WUHU216HW,2013-02-23 00:34:00,
2013-02-22 18:39:00,24.0,15.4,29.98,NNW,335,2.3,3.9,69,0.00,,,0.00,WUHU216HW,2013-02-23 00:39:00,
2013-02-22 18:44:00,24.0,15.4,29.98,WNW,297,1.9,2.5,69,0.00,,,0.00,WUHU216HW,2013-02-23 00:44:00,
2013-02-22 18:49:00,24.0,15.4,29.98,WNW,290,3.2,3.9,69,0.00,,,0.00,WUHU216HW,2013-02-23 00:49:00,
2013-02-22 18:54:00,23.9,15.3,29.98,NW,325,2.6,4.4,69,0.00,,,0.00,WUHU216HW,2013-02-23 00:54:00,
2013-02-22 18:59:00,24.0,15.4,29.98,West,281,2.5,3.9,69,0.00,,,0.00,WUHU216HW,2013-02-23 00:59:00,
2013-02-22 19:04:00,23.9,14.9,29.98,WNW,303,1.6,2.1,68,0.00,,,0.00,WUHU216HW,2013-02-23 01:04:00,
2013-02-22 19:09:00,23.7,14.8,29.98,WNW,302,1.3,2.1,68,0.00,,,0.00,WUHU216HW,2013-02-23 01:09:00,
2013-02-22 19:14:00,23.5,14.6,29.98,NW,316,1.1,2.1,68,0.00,,,0.00,WUHU216HW,2013-02-23 01:14:00,
2013-02-22 19:19:00,23.5,14.6,29.99,WNW,285,1.1,1.8,68,0.00,,,0.00,WUHU216HW,2013-02-23 01:19:00,
2013-02-22 19:24:00,23.1,14.2,29.99,NW,309,1.3,1.8,68,0.00,,,0.00,WUHU216HW,2013-02-23 01:24:00,
2013-02-22 19:29:00,23.0,14.1,29.99,West,262,0.6,1.0,68,0.00,,,0.00,WUHU216HW,2013-02-23 01:29:00,
2013-02-22 19:34:00,22.8,14.2,29.99,SW,225,0.5,0.5,69,0.00,,,0.00,WUHU216HW,2013-02-23 01:34:00,
2013-02-22 19:39:00,22.6,13.7,29.99,NNW,333,0.8,1.3,68,0.00,,,0.00,WUHU216HW,2013-02-23 01:39:00,
2013-02-22 19:44:00,22.4,13.8,29.99,NW,311,0.5,0.8,69,0.00,,,0.00,WUHU216HW,2013-02-23 01:44:00,
2013-02-22 19:49:00,22.2,13.6,29.99,WNW,298,0.8,1.0,69,0.00,,,0.00,WUHU216HW,2013-02-23 01:49:00,
2013-02-22 19:54:00,22.4,13.8,29.98,NW,309,1.2,1.5,69,0.00,,,0.00,WUHU216HW,2013-02-23 01:54:00,
2013-02-22 19:59:00,22.4,13.8,29.98,NNW,335,1.6,2.1,69,0.00,,,0.00,WUHU216HW,2013-02-23 01:59:00,
2013-02-22 20:04:00,22.2,13.6,29.98,NNW,342,0.6,1.0,69,0.00,,,0.00,WUHU216HW,2013-02-23 02:04:00,
2013-02-22 20:09:00,22.2,13.6,29.98,North,358,0.5,0.8,69,0.00,,,0.00,WUHU216HW,2013-02-23 02:09:00,
2013-02-22 20:14:00,22.1,13.5,29.98,North,0,0.3,0.5,69,0.00,,,0.00,WUHU216HW,2013-02-23 02:14:00,
2013-02-22 20:19:00,21.9,13.3,29.98,North,0,0.5,0.5,69,0.00,,,0.00,WUHU216HW,2013-02-23 02:19:00,
2013-02-22 20:24:00,21.7,13.2,29.98,North,0,0.0,0.0,69,0.00,,,0.00,WUHU216HW,2013-02-23 02:24:00,
2013-02-22 20:29:00,21.5,13.0,29.98,North,0,0.0,0.0,69,0.00,,,0.00,WUHU216HW,2013-02-23 02:29:00,
2013-02-22 20:34:00,21.3,12.8,29.98,North,0,0.5,0.5,69,0.00,,,0.00,WUHU216HW,2013-02-23 02:34:00,
2013-02-22 20:39:00,21.3,12.8,29.98,North,0,0.0,0.0,69,0.00,,,0.00,WUHU216HW,2013-02-23 02:39:00,
2013-02-22 20:44:00,21.0,12.5,29.98,West,267,1.0,1.5,69,0.00,,,0.00,WUHU216HW,2013-02-23 02:44:00,
2013-02-22 20:49:00,20.8,12.3,29.99,WSW,251,0.3,0.5,69,0.00,,,0.00,WUHU216HW,2013-02-23 02:49:00,
2013-02-22 20:54:00,20.6,12.1,29.98,WSW,248,0.2,0.2,69,0.00,,,0.00,WUHU216HW,2013-02-23 02:54:00,
2013-02-22 20:59:00,20.6,12.1,29.98,SW,233,0.6,1.0,69,0.00,,,0.00,WUHU216HW,2013-02-23 02:59:00,
2013-02-22 21:04:00,20.3,11.8,29.98,SW,225,0.4,0.5,69,0.00,,,0.00,WUHU216HW,2013-02-23 03:04:00,
2013-02-22 21:09:00,20.1,11.6,29.98,SW,225,0.2,0.2,69,0.00,,,0.00,WUHU216HW,2013-02-23 03:09:00,
2013-02-22 21:14:00,19.9,11.4,29.98,North,0,0.0,0.0,69,0.00,,,0.00,WUHU216HW,2013-02-23 03:14:00,
2013-02-22 21:19:00,19.7,11.2,29.99,North,0,0.0,0.0,69,0.00,,,0.00,WUHU216HW,2013-02-23 03:19:00,
2013-02-22 21:24:00,19.7,11.2,29.98,North,0,0.0,0.0,69,0.00,,,0.00,WUHU216HW,2013-02-23 03:24:00,
2013-02-22 21:29:00,19.7,11.2,29.98,North,0,0.0,0.0,69,0.00,,,0.00,WUHU216HW,2013-02-23 03:29:00,
2013-02-22 21:34:00,19.5,11.0,29.99,North,0,0.0,0.0,69,0.00,,,0.00,WUHU216HW,2013-02-23 03:34:00,
2013-02-22 21:39:00,19.4,10.9,29.98,North,0,0.0,0.0,69,0.00,,,0.00,WUHU216HW,2013-02-23 03:39:00,
2013-02-22 21:44:00,19.2,10.7,29.98,North,0,0.0,0.0,69,0.00,,,0.00,WUHU216HW,2013-02-23 03:44:00,
2013-02-22 21:49:00,19.0,10.5,29.99,South,180,0.6,0.8,69,0.00,,,0.00,WUHU216HW,2013-02-23 03:49:00,
2013-02-22 21:54:00,18.6,10.2,29.99,SSW,203,0.3,0.5,69,0.00,,,0.00,WUHU216HW,2013-02-23 03:54:00,
2013-02-22 21:59:00,18.6,10.2,29.98,North,0,0.0,0.0,69,0.00,,,0.00,WUHU216HW,2013-02-23 03:59:00,
2013-02-22 22:04:00,18.5,10.1,29.98,SSE,158,0.2,0.2,69,0.00,,,0.00,WUHU216HW,2013-02-23 04:04:00,
2013-02-22 22:09:00,18.5,10.1,29.98,North,0,0.0,0.0,69,0.00,,,0.00,WUHU216HW,2013-02-23 04:09:00,
2013-02-22 22:14:00,18.3,9.9,29.98,North,0,0.0,0.0,69,0.00,,,0.00,WUHU216HW,2013-02-23 04:14:00,
2013-02-22 22:19:00,18.3,10.2,29.98,North,0,0.0,0.0,70,0.00,,,0.00,WUHU216HW,2013-02-23 04:19:00,
2013-02-22 22:24:00,18.5,10.4,29.98,North,0,0.0,0.0,70,0.00,,,0.00,WUHU216HW,2013-02-23 04:24:00,
2013-02-22 22:29:00,18.5,10.1,29.98,North,0,0.0,0.0,69,0.00,,,0.00,WUHU216HW,2013-02-23 04:29:00,
2013-02-22 22:34:00,18.1,9.7,29.98,NNE,13,0.5,0.8,69,0.00,,,0.00,WUHU216HW,2013-02-23 04:34:00,
2013-02-22 22:39:00,17.7,9.6,29.98,North,11,0.5,0.5,70,0.00,,,0.00,WUHU216HW,2013-02-23 04:39:00,
2013-02-22 22:44:00,17.7,9.6,29.98,North,0,0.0,0.0,70,0.00,,,0.00,WUHU216HW,2013-02-23 04:44:00,
2013-02-22 22:49:00,17.7,9.6,29.98,North,0,0.0,0.0,70,0.00,,,0.00,WUHU216HW,2013-02-23 04:49:00,
2013-02-22 22:54:00,17.6,9.5,29.98,North,0,0.0,0.0,70,0.00,,,0.00,WUHU216HW,2013-02-23 04:54:00,
2013-02-22 22:59:00,17.4,9.3,29.98,North,0,0.0,0.0,70,0.00,,,0.00,WUHU216HW,2013-02-23 04:59:00,
2013-02-22 23:04:00,17.2,9.1,29.98,North,0,0.0,0.0,70,0.00,,,0.00,WUHU216HW,2013-02-23 05:04:00,
2013-02-22 23:09:00,17.2,9.1,29.98,North,0,0.0,0.0,70,0.00,,,0.00,WUHU216HW,2013-02-23 05:09:00,
2013-02-22 23:14:00,17.0,8.9,29.98,South,180,0.8,1.0,70,0.00,,,0.00,WUHU216HW,2013-02-23 05:14:00,
2013-02-22 23:19:00,16.7,8.6,29.98,South,185,1.1,1.8,70,0.00,,,0.00,WUHU216HW,2013-02-23 05:19:00,
2013-02-22 23:24:00,16.5,8.5,29.98,South,173,0.6,0.8,70,0.00,,,0.00,WUHU216HW,2013-02-23 05:24:00,
2013-02-22 23:29:00,16.3,8.6,29.98,SSE,158,0.5,0.5,71,0.00,,,0.00,WUHU216HW,2013-02-23 05:29:00,
2013-02-22 23:34:00,16.3,8.6,29.98,SSE,167,0.9,1.3,71,0.00,,,0.00,WUHU216HW,2013-02-23 05:34:00,
2013-02-22 23:39:00,16.3,8.3,29.97,North,0,0.0,0.0,70,0.00,,,0.00,WUHU216HW,2013-02-23 05:39:00,
2013-02-22 23:44:00,16.3,8.3,29.97,South,180,0.5,0.5,70,0.00,,,0.00,WUHU216HW,2013-02-23 05:44:00,
2013-02-22 23:49:00,16.1,8.1,29.97,North,0,0.0,0.0,70,0.00,,,0.00,WUHU216HW,2013-02-23 05:49:00,
2013-02-22 23:54:00,15.9,7.9,29.97,SW,220,0.4,0.5,70,0.00,,,0.00,WUHU216HW,2013-02-23 05:54:00,
2013-02-22 23:59:00,15.8,7.8,29.97,SW,225,0.5,0.8,70,0.00,,,0.00,WUHU216HW,2013-02-23 05:59:00,